When you browse on this site, cookies collect data to enhance your experience and personalize the content and advertising you see.
Visit our Privacy Policy to learn more. By continuing to use the site, you agree to this use of cookies and data.
  • In Latvia
  • List of Countries
  • For 7 days
  • Water Temperature
  • Weather Map
  • Weather Widgets
  • user-avatar
    Login

    Hourly Weather Portland

    Today, 7 April, Tuesday

    Time Temperature Precipitation Wind Pressure Humidity
    00:00 +7°C° 0 mm 1 mps 763 mmHg 79%
    01:00 +7°C° 0 mm 1 mps 763 mmHg 80%
    02:00 +6°C° 0 mm 1 mps 763 mmHg 81%
    03:00 +6°C° 0 mm 1 mps 763 mmHg 83%
    04:00 +4°C° 0 mm 0 mps 763 mmHg 84%
    05:00 +5°C° 0 mm 0 mps 764 mmHg 83%
    06:00 +5°C° 0 mm 0 mps 764 mmHg 82%
    07:00 +6°C° 0 mm 0 mps 764 mmHg 81%
    08:00 +8°C° 0 mm 0 mps 764 mmHg 73%
    09:00 +9°C° 0 mm 0 mps 764 mmHg 66%
    10:00 +11°C° 0 mm 0 mps 765 mmHg 59%
    11:00 +13°C° 0 mm 1 mps 764 mmHg 57%
    12:00 +13°C° 0 mm 1 mps 764 mmHg 54%
    13:00 +14°C° 0 mm 1 mps 764 mmHg 52%
    14:00 +14°C° 0 mm 1 mps 764 mmHg 51%
    15:00 +15°C° 0 mm 1 mps 764 mmHg 50%
    16:00 +15°C° 0 mm 1 mps 764 mmHg 50%
    17:00 +13°C° 0 mm 1 mps 764 mmHg 56%
    18:00 +12°C° 0 mm 1 mps 764 mmHg 62%
    19:00 +9°C° 0 mm 2 mps 765 mmHg 68%
    20:00 +9°C° 0 mm 1 mps 765 mmHg 71%
    21:00 +8°C° 0 mm 1 mps 766 mmHg 74%
    22:00 +7°C° 0 mm 1 mps 766 mmHg 77%
    23:00 +7°C° 0 mm 1 mps 766 mmHg 79%

    Tomorrow, 8 April, Wednesday

    Time Temperature Precipitation Wind Pressure Humidity
    00:00 +6°C° 0 mm 1 mps 766 mmHg 81%
    01:00 +6°C° 0 mm 1 mps 766 mmHg 83%
    02:00 +5°C° 0 mm 1 mps 766 mmHg 84%
    03:00 +5°C° 0 mm 1 mps 766 mmHg 85%
    04:00 +5°C° 0 mm 1 mps 766 mmHg 87%
    05:00 +5°C° 0 mm 1 mps 766 mmHg 85%
    06:00 +6°C° 0 mm 1 mps 766 mmHg 83%
    07:00 +6°C° 0 mm 1 mps 766 mmHg 81%
    08:00 +8°C° 0 mm 1 mps 766 mmHg 72%
    09:00 +11°C° 0 mm 1 mps 766 mmHg 63%
    10:00 +13°C° 0 mm 2 mps 765 mmHg 54%
    11:00 +15°C° 0 mm 2 mps 765 mmHg 50%
    12:00 +17°C° 0 mm 2 mps 765 mmHg 46%
    13:00 +19°C° 0 mm 2 mps 764 mmHg 43%
    14:00 +19°C° 0 mm 2 mps 764 mmHg 44%
    15:00 +19°C° 0 mm 3 mps 763 mmHg 45%
    16:00 +20°C° 0 mm 3 mps 763 mmHg 46%
    17:00 +18°C° 0 mm 2 mps 763 mmHg 52%
    18:00 +16°C° 0 mm 2 mps 763 mmHg 59%
    19:00 +14°C° 0 mm 2 mps 763 mmHg 65%
    20:00 +13°C° 0 mm 2 mps 764 mmHg 67%
    21:00 +12°C° 0 mm 2 mps 764 mmHg 69%
    22:00 +11°C° 0 mm 1 mps 764 mmHg 71%
    23:00 +10°C° 0 mm 1 mps 764 mmHg 73%

    Day after tomorrow, 9 April, Thursday

    Time Temperature Precipitation Wind Pressure Humidity
    00:00 +9°C° 0 mm 1 mps 764 mmHg 74%
    01:00 +9°C° 0 mm 1 mps 764 mmHg 76%
    02:00 +8°C° 0 mm 1 mps 764 mmHg 76%
    03:00 +8°C° 0 mm 1 mps 764 mmHg 77%
    04:00 +7°C° 0 mm 1 mps 764 mmHg 78%
    05:00 +8°C° 0 mm 1 mps 764 mmHg 76%
    06:00 +8°C° 0 mm 1 mps 764 mmHg 74%
    07:00 +9°C° 0 mm 1 mps 764 mmHg 72%
    08:00 +11°C° 0 mm 1 mps 764 mmHg 65%
    09:00 +13°C° 0 mm 1 mps 764 mmHg 57%
    10:00 +16°C° 0 mm 1 mps 763 mmHg 49%
    11:00 +18°C° 0 mm 1 mps 763 mmHg 45%
    12:00 +20°C° 0 mm 1 mps 763 mmHg 41%
    13:00 +21°C° 0 mm 2 mps 763 mmHg 37%
    14:00 +21°C° 0 mm 2 mps 763 mmHg 38%
    15:00 +21°C° 0 mm 2 mps 763 mmHg 38%
    16:00 +21°C° 0 mm 2 mps 763 mmHg 39%
    17:00 +19°C° 0 mm 2 mps 763 mmHg 46%
    18:00 +17°C° 0 mm 2 mps 763 mmHg 52%
    19:00 +14°C° 0 mm 2 mps 764 mmHg 59%
    20:00 +13°C° 0 mm 2 mps 764 mmHg 63%
    21:00 +12°C° 0 mm 2 mps 765 mmHg 67%
    22:00 +10°C° 0 mm 1 mps 765 mmHg 71%
    23:00 +9°C° 0 mm 1 mps 765 mmHg 75%

    10 April, Friday

    Time Temperature Precipitation Wind Pressure Humidity
    00:00 +9°C° 0 mm 1 mps 766 mmHg 79%
    01:00 +8°C° 0 mm 1 mps 766 mmHg 84%
    02:00 +8°C° 0 mm 1 mps 766 mmHg 85%
    03:00 +7°C° 0 mm 1 mps 766 mmHg 86%
    04:00 +6°C° 0 mm 0 mps 766 mmHg 87%
    05:00 +7°C° 0 mm 0 mps 766 mmHg 85%
    06:00 +7°C° 0 mm 0 mps 766 mmHg 82%
    07:00 +9°C° 0 mm 1 mps 766 mmHg 80%
    08:00 +11°C° 0 mm 1 mps 766 mmHg 76%
    09:00 +12°C° 0 mm 1 mps 766 mmHg 72%
    10:00 +12°C° 0 mm 0 mps 766 mmHg 68%
    11:00 +15°C° 0 mm 1 mps 766 mmHg 65%
    12:00 +16°C° 0 mm 1 mps 765 mmHg 62%
    13:00 +18°C° 0 mm 1 mps 765 mmHg 60%
    14:00 +18°C° 0 mm 1 mps 765 mmHg 63%
    15:00 +16°C° 0 mm 1 mps 765 mmHg 66%
    16:00 +16°C° 0 mm 1 mps 765 mmHg 69%
    17:00 +15°C° 0 mm 1 mps 765 mmHg 72%
    18:00 +14°C° 0 mm 0 mps 765 mmHg 75%
    19:00 +13°C° 0 mm 0 mps 765 mmHg 78%
    20:00 +12°C° 0 mm 0 mps 765 mmHg 80%
    21:00 +13°C° 0 mm 1 mps 766 mmHg 82%
    22:00 +12°C° 0 mm 1 mps 766 mmHg 85%
    23:00 +12°C° 0 mm 1 mps 766 mmHg 85%

    11 April, Saturday

    Time Temperature Precipitation Wind Pressure Humidity
    00:00 +12°C° 0 mm 1 mps 766 mmHg 86%
    01:00 +11°C° 0 mm 0 mps 765 mmHg 87%
    02:00 +11°C° 0 mm 0 mps 765 mmHg 87%
    03:00 +11°C° 0 mm 0 mps 765 mmHg 87%
    04:00 +10°C° 0 mm 0 mps 765 mmHg 88%
    05:00 +11°C° 0 mm 0 mps 765 mmHg 86%
    06:00 +11°C° 0 mm 0 mps 765 mmHg 85%
    07:00 +11°C° 0 mm 0 mps 765 mmHg 84%
    08:00 +13°C° 0 mm 0 mps 765 mmHg 77%
    09:00 +15°C° 0 mm 1 mps 765 mmHg 70%
    10:00 +16°C° 0 mm 1 mps 765 mmHg 63%
    11:00 +18°C° 0 mm 1 mps 765 mmHg 58%
    12:00 +19°C° 0 mm 1 mps 764 mmHg 53%
    13:00 +20°C° 0 mm 1 mps 764 mmHg 49%
    14:00 +19°C° 0 mm 2 mps 764 mmHg 49%
    15:00 +19°C° 0 mm 2 mps 764 mmHg 48%
    16:00 +19°C° 0 mm 2 mps 763 mmHg 48%
    17:00 +17°C° 0 mm 2 mps 764 mmHg 51%
    18:00 +15°C° 0 mm 2 mps 764 mmHg 53%
    19:00 +14°C° 0 mm 2 mps 764 mmHg 56%
    20:00 +12°C° 0 mm 2 mps 764 mmHg 57%
    21:00 +10°C° 0 mm 2 mps 765 mmHg 57%
    22:00 +9°C° 0 mm 2 mps 765 mmHg 58%
    23:00 +10°C° 0 mm 1 mps 765 mmHg 60%

    12 April, Sunday

    Time Temperature Precipitation Wind Pressure Humidity
    00:00 +9°C° 0 mm 1 mps 765 mmHg 63%
    01:00 +8°C° 0 mm 1 mps 765 mmHg 65%
    02:00 +8°C° 0 mm 1 mps 765 mmHg 67%
    03:00 +8°C° 0 mm 1 mps 765 mmHg 70%
    04:00 +7°C° 0 mm 1 mps 765 mmHg 72%
    05:00 +8°C° 0 mm 1 mps 766 mmHg 71%
    06:00 +8°C° 0 mm 1 mps 766 mmHg 70%
    07:00 +9°C° 0 mm 1 mps 766 mmHg 70%
    08:00 +11°C° 0 mm 1 mps 766 mmHg 63%
    09:00 +13°C° 0 mm 1 mps 766 mmHg 56%
    10:00 +16°C° 0 mm 1 mps 766 mmHg 49%
    11:00 +18°C° 0 mm 1 mps 766 mmHg 46%
    12:00 +20°C° 0 mm 1 mps 765 mmHg 42%
    13:00 +22°C° 0 mm 1 mps 765 mmHg 39%
    14:00 +22°C° 0 mm 1 mps 765 mmHg 40%
    15:00 +22°C° 0 mm 1 mps 764 mmHg 40%
    16:00 +21°C° 0 mm 1 mps 764 mmHg 40%
    17:00 +19°C° 0 mm 2 mps 764 mmHg 47%
    18:00 +17°C° 0 mm 2 mps 764 mmHg 54%
    19:00 +15°C° 0 mm 2 mps 764 mmHg 61%
    20:00 +14°C° 0 mm 2 mps 765 mmHg 64%
    21:00 +13°C° 0 mm 2 mps 765 mmHg 67%
    22:00 +12°C° 0 mm 2 mps 766 mmHg 70%
    23:00 +11°C° 0 mm 1 mps 766 mmHg 71%
    Show more